Retour au catalogue

IRIDIUM 33 DEB

ActifPO
NORAD 34146·DEBRIS·🇺🇸 United States

Lancé Sep 14, 1997 depuis Baikonur Cosmodrome

Loading…

Prochains Passages (prochaines 24 heures)

TLE

FraisSource: Space-Track

Époque: Sep 14, 2026, 10:02 UTC

1 34146U 97051DZ  26257.41853367  .00002408  00000-0  60699-3 0  9996
2 34146  86.2814 227.8248 0027951  31.0063 125.1415 14.50520184921011

Suivez IRIDIUM 33 DEB en temps réel avec AllMySat

Download on the App Store